Location: Lahas
(43.5538°N, 0.8906°E)
Time: 07:58:47
(UTC+00:00)

YAOGAN 11 - Pass Details

Date: 15 May 2026
Orbit: 599 x 646 km, 98.4° (Epoch: 6 June)

Event Time Altitude Azimuth Distance (km) Brightness Sun altitude
Rises 20:47:25 0° 13° (NNE) 2,947 8.0 -14.4°
Reaches altitude 10° 20:49:37 10° 14° (NNE) 2,039 7.1 -14.7°
Maximum altitude 20:54:04 86° 103° (ESE) 651 4.1 -15.2°
Drops below altitude 10° 20:58:32 10° 194° (SSW) 2,038 6.4 -15.8°
Enters shadow 20:58:39 - 194° (SSW) 2,085 6.4 -15.8°
